Theta_e
349 349 348 348 349 352 353 354 355 357 355 358 359 358 357 357 356 355 354 354 352 346 345 346 348 349 345 342 347 347 347 345 342 340 339 338 338 338 338 339 341 340 339
347 349 349 349 349 351 352 353 354 357 356 356 356 357 358 357 356 356 355 356 355 350 347 345 345 346 351 350 350 349 348 346 344 341 341 341 340 340 339 340 341 341 340
350 353 351 351 350 351 353 351 352 353 353 354 355 357 357 356 356 356 356 356 356 354 350 348 346 343 343 348 349 349 350 347 346 343 342 342 341 342 343 344 342 341 340
352 354 353 352 352 353 352 350 348 348 349 350 352 353 353 354 355 355 355 356 356 356 356 352 348 345 345 343 344 350 350 349 345 345 342 342 343 342 343 345 344 341 340
352 355 353 352 354 353 352 351 350 349 350 352 351 349 349 350 351 351 353 356 358 357 355 356 354 349 347 343 347 350 349 349 346 346 345 341 343 344 344 345 344 342 341
354 354 353 354 355 352 351 351 354 352 353 350 350 350 350 350 349 349 354 354 355 358 356 355 356 353 347 343 345 350 350 348 347 346 348 347 343 344 345 345 344 344 342
353 354 354 353 355 354 353 356 355 353 354 354 355 352 351 351 350 351 350 349 353 355 354 353 353 350 351 348 344 345 350 349 347 348 348 348 349 347 346 346 345 344 343
353 353 354 353 353 353 355 357 357 354 353 355 358 357 358 353 350 353 353 352 352 354 353 354 352 352 354 353 352 347 345 344 345 348 346 345 346 349 348 347 346 344 343
354 354 354 354 354 355 351 351 355 356 354 354 356 359 361 359 356 355 357 355 352 351 348 352 353 353 356 356 355 354 347 346 349 349 347 348 347 348 348 347 346 345 343
355 355 355 356 355 354 351 353 353 356 356 355 355 354 357 358 362 361 355 357 359 359 354 350 351 354 355 356 355 355 355 351 348 350 351 349 349 347 347 346 345 343 344
355 355 354 355 355 355 352 355 358 359 359 359 357 357 358 359 359 360 363 358 356 356 357 353 349 348 351 356 354 355 351 350 352 351 351 351 349 348 346 345 343 342 342
352 355 356 355 355 354 355 357 360 362 363 361 360 361 361 360 359 358 361 360 359 357 356 355 354 349 348 351 355 353 351 347 348 351 352 351 349 348 347 345 344 343 340
351 351 355 358 356 356 358 360 362 363 363 363 364 362 360 358 357 359 357 357 360 356 356 355 354 354 350 350 350 351 349 346 345 348 351 352 349 348 348 346 345 345 343
351 351 355 357 358 359 360 361 362 362 363 364 364 364 362 360 357 357 359 361 364 360 356 356 356 354 353 350 351 352 351 349 343 342 348 352 351 349 349 349 346 346 346
353 353 357 359 359 360 364 364 363 362 363 362 364 363 363 361 358 359 360 361 361 364 359 353 352 355 352 349 350 351 351 353 351 343 342 343 348 351 350 351 350 346 347
356 358 359 361 363 363 364 366 365 363 363 363 361 360 361 361 361 362 361 362 361 361 364 356 354 354 353 351 351 350 350 352 352 346 341 340 340 342 347 350 351 349 347
359 362 362 362 363 364 365 365 363 362 363 363 363 362 363 361 363 361 360 360 362 362 362 360 358 354 356 353 352 351 353 352 351 351 349 347 345 342 343 347 350 351 349
361 360 359 357 355 354 353 353 353 353 353 353 353 353 354 353 356 358 359 359 362 361 360 361 360 358 357 354 353 354 353 351 351 350 349 349 347 347 345 347 349 350 350
350 348 345 346 345 343 341 341 340 340 340 341 341 342 344 345 350 349 352 356 359 359 358 357 359 358 356 355 354 354 352 352 351 347 346 346 345 345 346 346 347 348 348
340 340 339 338 338 338 338 339 339 339 339 339 340 341 342 344 346 348 351 352 353 357 356 356 357 357 357 354 354 353 351 347 342 342 342 344 344 344 342 342 342 345 345
334 333 334 334 334 334 333 332 332 332 333 334 335 336 337 338 338 339 341 345 350 353 351 354 355 353 354 353 354 352 350 344 336 336 335 336 336 338 340 343 343 342 344
331 331 332 332 332 333 331 330 329 330 331 331 333 335 336 337 338 338 339 340 340 343 349 348 352 351 350 353 351 350 344 339 339 332 333 332 332 332 333 335 338 343 344
329 329 330 330 332 333 330 327 326 327 331 333 333 335 337 338 338 340 340 339 340 340 343 346 349 350 349 349 350 348 343 341 344 337 336 331 330 329 329 330 332 336 340
328 327 327 326 327 328 323 322 323 327 329 333 335 337 338 339 341 340 339 340 341 343 344 347 347 349 348 347 348 345 343 342 336 338 338 336 333 330 329 329 330 331 333
327 327 326 326 326 324 320 320 321 325 328 328 330 334 338 334 332 330 331 336 341 343 343 344 345 346 345 346 347 345 341 338 335 334 332 332 331 330 330 329 330 331 331
325 325 324 323 322 323 321 318 319 322 324 325 327 330 330 329 324 325 325 333 340 343 342 342 341 342 343 343 344 344 340 339 337 332 331 333 332 332 331 328 330 330 328
Wind_Speed
8 8 8 7 7 8 8 8 8 8 8 7 7 8 8 9 9 10 10 14 15 16 16 17 14 15 18 23 25 23 21 19 19 19 19 19 19 19 19 19 19 21 21
8 7 7 8 8 9 9 9 9 9 9 9 9 10 10 10 8 10 11 11 16 14 14 16 20 17 18 20 23 26 22 20 19 19 18 19 20 21 21 21 20 21 21
8 8 7 7 7 8 10 11 11 11 11 11 11 10 11 11 11 10 10 11 10 12 12 13 15 20 20 18 22 23 24 21 20 19 19 19 19 20 21 21 21 21 22
10 9 9 9 8 9 10 11 11 12 12 12 11 12 12 13 12 12 10 9 9 9 11 10 14 13 17 17 17 18 22 21 20 20 20 19 19 20 21 21 21 21 21
11 11 11 11 10 11 11 11 11 11 12 12 14 13 14 14 13 12 10 9 8 7 9 12 13 16 15 13 15 18 20 22 21 20 21 21 21 21 21 21 22 23 23
12 12 12 12 11 12 12 10 10 11 12 13 14 15 15 13 12 11 8 6 7 7 7 8 9 11 13 10 14 17 20 21 23 22 21 21 22 23 22 22 22 23 23
14 13 13 12 11 11 11 10 10 10 11 10 13 14 13 13 8 5 6 9 5 6 5 7 7 9 11 13 12 17 19 23 24 24 23 23 24 24 24 23 23 23 23
16 16 15 14 13 13 12 11 10 12 13 11 10 15 7 10 1 9 9 7 8 6 7 8 8 9 9 11 13 16 18 20 25 26 23 23 25 25 24 24 24 23 24
18 19 18 18 16 15 16 14 13 12 14 13 10 7 6 8 15 12 9 6 7 10 11 9 10 10 11 11 13 15 19 20 19 21 23 23 25 25 24 24 24 25 25
17 16 18 18 19 18 17 15 14 14 13 16 15 15 13 15 7 7 13 12 13 12 13 13 13 12 12 12 14 15 16 16 19 21 21 24 27 26 25 24 25 25 26
16 16 18 18 19 18 18 17 14 14 15 16 17 17 16 17 16 13 12 13 16 15 16 14 16 16 14 15 14 15 15 15 17 20 20 23 26 27 26 24 24 25 25
14 15 15 17 17 17 17 16 16 16 16 17 17 17 17 17 19 18 10 15 17 20 18 16 16 17 17 16 17 17 17 14 17 18 20 22 25 27 27 26 24 24 25
14 14 14 15 15 16 15 15 16 18 17 18 19 20 21 23 21 22 22 19 14 23 20 18 15 16 16 17 18 18 17 16 14 17 20 22 25 27 28 28 27 26 25
15 12 13 14 14 14 16 17 18 20 20 21 21 20 23 27 25 20 21 18 13 15 23 20 17 16 17 18 16 16 16 16 15 14 16 21 24 28 29 31 31 29 28
16 15 13 14 15 15 15 17 21 22 23 23 24 25 25 26 25 23 20 23 17 13 14 23 17 10 13 15 14 14 14 14 16 16 17 18 21 25 30 32 34 34 32
13 13 12 14 15 16 17 18 19 21 21 22 23 23 25 26 25 23 25 24 22 22 13 30 24 16 16 17 14 15 15 19 21 21 22 23 25 27 29 33 36 37 37
12 12 13 14 15 15 14 15 17 19 20 22 23 23 26 26 25 27 27 26 25 23 14 30 29 22 16 19 19 16 15 16 17 19 22 23 25 30 31 33 36 39 39
5 5 8 9 9 12 14 16 19 21 22 23 25 24 26 26 25 26 28 27 25 25 23 20 29 28 16 17 19 18 15 15 14 14 16 21 23 24 27 29 33 38 40
1 2 6 8 11 12 14 15 17 20 22 23 25 26 27 26 27 28 27 28 27 26 26 27 29 28 22 18 18 17 14 12 10 14 15 18 19 18 22 26 29 28 35
2 3 6 7 10 12 13 15 14 17 20 22 24 25 26 27 28 28 29 28 29 29 27 25 25 26 24 21 18 18 16 10 11 10 10 12 14 13 18 19 22 24 31
3 3 6 7 9 11 11 14 16 18 20 22 24 25 26 27 29 31 31 31 29 26 23 22 21 20 21 21 20 20 16 8 6 7 3 0 1 3 8 16 20 22 24
3 6 6 8 10 11 15 16 17 18 21 23 23 23 24 27 28 30 31 34 35 34 31 23 21 19 23 25 23 17 13 8 3 11 10 8 5 8 7 6 10 18 21
6 9 8 9 10 10 13 18 18 17 20 21 23 24 24 23 26 27 28 30 33 36 37 33 26 26 22 26 22 19 16 15 10 14 14 9 8 12 12 12 16 10 8
10 8 7 7 8 8 18 20 20 16 18 19 21 22 22 22 23 22 25 28 27 28 27 25 33 32 26 22 22 21 17 13 14 12 10 8 7 8 10 13 14 15 16
8 6 6 7 10 12 22 23 22 17 18 20 20 19 18 21 23 28 28 26 26 26 22 25 24 24 21 19 20 19 21 17 7 10 8 9 11 11 9 9 10 10 12
8 7 8 9 10 13 18 23 23 16 18 19 18 18 19 20 33 31 25 23 21 17 17 17 15 11 14 16 23 19 23 18 11 7 14 9 18 14 6 6 5 7 10
Wind_Direction
259 266 270 270 267 271 285 301 313 329 322 318 312 298 298 299 300 288 283 281 284 262 258 242 227 229 236 270 244 243 232 231 234 235 234 234 233 237 240 243 241 235 233
254 265 270 271 272 271 281 296 302 309 311 312 314 305 297 295 293 284 281 278 281 272 258 250 238 230 244 254 240 236 230 227 230 232 234 235 235 239 243 244 242 237 235
247 252 267 276 280 279 282 286 289 288 294 299 305 299 297 296 295 291 285 281 274 270 242 245 241 234 234 235 236 239 228 226 228 229 233 237 236 237 243 243 241 239 237
239 248 261 266 273 281 285 289 291 292 293 296 305 298 305 303 295 298 291 280 280 269 266 248 231 224 231 244 241 230 219 225 229 232 234 237 240 238 239 241 242 240 239
236 246 260 265 272 279 282 287 295 299 299 296 294 309 302 300 295 299 301 285 269 267 260 255 264 234 236 258 237 218 221 227 230 233 234 235 240 242 241 239 238 239 238
240 248 260 264 267 272 276 278 284 295 297 293 298 305 295 292 297 298 287 282 268 271 265 251 249 236 244 246 232 220 219 227 235 238 238 235 237 240 242 239 237 237 239
243 250 256 258 261 266 276 275 270 274 291 300 303 301 311 288 276 270 288 287 281 265 259 246 248 249 250 252 237 227 228 228 234 239 247 241 237 236 239 240 237 235 237
244 247 253 259 264 274 276 281 274 280 283 289 292 309 306 306 155 271 295 272 280 247 255 257 242 246 243 240 242 239 231 236 240 239 239 239 240 238 237 238 236 232 233
242 245 248 253 264 268 273 273 270 269 282 292 284 276 305 313 328 307 260 273 278 266 275 256 238 238 241 244 244 245 238 236 232 237 239 241 237 237 238 237 236 232 229
241 245 248 252 258 262 269 267 267 265 273 282 288 278 271 283 295 300 296 273 256 266 270 260 251 243 241 245 243 235 242 240 236 234 234 239 232 235 237 238 238 234 233
244 246 247 251 255 255 256 258 262 266 272 274 283 290 288 280 259 265 291 294 289 278 266 257 261 260 246 240 238 237 235 238 237 237 235 226 232 234 233 235 236 237 236
246 245 249 246 244 245 250 256 266 266 264 271 270 275 276 282 292 288 278 281 284 286 279 275 268 265 255 248 242 231 236 237 236 234 235 228 225 231 235 234 232 234 235
248 249 244 246 246 246 254 259 264 265 266 262 267 271 278 279 278 277 282 282 285 284 277 270 266 265 255 250 243 236 239 233 237 234 234 232 229 230 232 234 236 233 233
254 260 258 258 259 256 259 262 262 263 262 262 260 260 271 274 273 262 272 275 282 285 282 272 256 259 258 252 238 236 233 239 234 236 237 232 232 230 232 236 235 235 234
257 256 259 260 262 266 266 268 271 274 271 267 265 263 255 265 267 264 256 253 250 273 279 277 273 233 241 233 234 233 234 240 247 245 250 247 241 239 235 235 235 235 233
255 260 257 264 266 271 274 273 274 277 277 275 271 267 263 264 268 273 267 263 257 249 269 273 276 261 224 234 230 237 243 238 246 253 256 253 250 245 241 237 234 233 232
257 264 269 269 275 279 281 283 280 280 278 279 276 272 270 269 267 266 264 256 252 247 246 262 272 271 219 227 249 241 235 242 253 262 267 266 258 249 244 241 234 230 229
245 264 274 281 289 292 292 289 287 286 284 282 281 281 278 278 275 268 266 264 252 250 246 254 266 271 252 235 248 238 235 244 257 271 263 263 264 256 245 243 241 232 227
162 265 278 297 297 295 296 292 290 290 288 286 284 282 279 278 275 272 271 268 258 250 249 253 258 266 264 237 235 230 231 238 242 251 264 262 268 256 248 244 245 236 228
321 316 309 314 308 308 305 300 298 297 294 290 287 284 282 278 276 276 270 263 264 259 252 248 254 257 259 245 231 232 217 214 234 255 262 267 271 263 250 246 244 242 238
359 355 344 334 324 320 311 323 312 307 300 291 287 284 281 278 277 276 275 275 278 266 253 248 247 254 250 238 220 229 233 200 204 200 166 73 318 250 250 255 254 250 242
360 21 1 350 332 324 319 323 317 306 300 292 287 286 285 286 283 278 272 270 267 266 269 260 250 239 240 237 238 211 196 168 202 176 127 91 83 82 50 351 271 245 243
29 25 10 357 331 325 320 320 313 307 301 300 293 289 288 289 290 286 283 279 273 265 260 257 252 241 238 239 225 206 200 198 190 167 139 104 99 81 79 68 50 45 250
35 22 9 345 342 340 341 347 333 323 312 306 304 299 298 298 295 295 294 285 281 277 264 262 253 245 234 240 212 210 192 179 137 158 156 119 145 107 94 85 78 72 78
44 36 28 18 9 5 1 1 353 340 326 321 316 307 312 314 313 309 307 295 280 272 266 269 251 233 238 221 205 183 159 152 131 166 163 131 150 128 109 88 95 91 110
61 55 47 29 18 10 0 9 4 343 329 325 326 327 327 325 324 326 310 295 285 256 244 234 234 228 223 206 195 179 171 168 146 146 183 150 158 147 125 92 104 103 128